{"data":{"norad_id":59695,"intl_designator":"2024-086P","name":"STARLINK-32104","alt_names":[],"object_type":"PAYLOAD","status":"ACTIVE","operator":null,"country":"US","launch_date":"2024-05-08","launch_site_code":"AFETR","launch_vehicle":null,"mission":null,"orbit_class":"UNKNOWN","rcs_meters":null,"size_class":null,"mass_kg":null,"dimensions":null,"purposes":["comms"],"wikipedia_slug":null,"has_3d_model":false,"image_url":null,"decayed_at":null,"tle_current":{"epoch":"2026-09-21T16:20:57.054624Z","epoch_age_seconds":69317,"freshness":"FRESH","line1":"1 59695U 24086P   26264.68121591  .00000045  00000+0  11166-4 0  9994","line2":"2 59695  43.0049  29.7525 0001489 296.7017  63.3682 15.27581471134120","mean_motion":15.27581471,"eccentricity":0.0001489,"inclination_deg":43.0049,"raan_deg":29.7525,"arg_perigee_deg":296.7017,"mean_anomaly_deg":63.3682,"bstar":1.1166e-5,"rev_number":13412,"period_min":94.266657938534,"perigee_km":482.02306138616,"apogee_km":484.06632129384,"semimajor_km":6861.18169134,"source":"CELESTRAK","updated_at":"2026-09-22T09:00:49.034669Z"}}}